Time,TemperatureF,DewpointF,PressureIn,WindDirection,WindDirectionDegrees,WindSpeedMPH,WindSpeedGustMPH,Humidity,HourlyPrecipIn,Conditions,Clouds,dailyrainin,SoftwareType,DateUTC
2013-02-23 00:00:00,42.1,41.3,29.86,NNE,21,0.0,2.0,97,0.05,,,0.52,Wunderground v.1.15,2013-02-23 05:00:00,
2013-02-23 00:05:00,42.3,41.5,29.86,NNW,344,0.0,2.0,97,0.04,,,0.00,Wunderground v.1.15,2013-02-23 05:05:00,
2013-02-23 00:10:00,42.6,41.8,29.85,North,355,0.0,0.0,97,0.00,,,0.00,Wunderground v.1.15,2013-02-23 05:10:00,
2013-02-23 00:20:00,43.2,42.4,29.85,West,279,0.0,0.0,97,0.00,,,0.01,Wunderground v.1.15,2013-02-23 05:20:00,
2013-02-23 00:30:00,43.2,42.4,29.84,WNW,292,0.0,2.0,97,0.00,,,0.01,Wunderground v.1.15,2013-02-23 05:30:00,
2013-02-23 00:35:00,43.6,42.8,29.84,West,269,1.0,2.0,97,0.00,,,0.01,Wunderground v.1.15,2013-02-23 05:35:00,
2013-02-23 00:45:00,43.9,43.1,29.83,West,269,0.0,1.0,97,0.00,,,0.02,Wunderground v.1.15,2013-02-23 05:45:00,
2013-02-23 00:50:00,43.9,43.1,29.84,West,269,0.0,0.0,97,0.00,,,0.02,Wunderground v.1.15,2013-02-23 05:50:00,
2013-02-23 01:00:00,44.3,43.5,29.83,West,269,0.0,0.0,97,0.00,,,0.02,Wunderground v.1.15,2013-02-23 06:00:00,
2013-02-23 01:10:00,45.1,44.3,29.81,West,269,0.0,0.0,97,0.00,,,0.03,Wunderground v.1.15,2013-02-23 06:10:00,
2013-02-23 01:20:00,45.4,44.6,29.80,West,269,0.0,0.0,97,0.00,,,0.03,Wunderground v.1.15,2013-02-23 06:20:00,
2013-02-23 01:30:00,45.5,44.7,29.78,West,269,0.0,0.0,97,0.00,,,0.03,Wunderground v.1.15,2013-02-23 06:30:00,
2013-02-23 01:40:00,46.0,45.2,29.78,West,269,0.0,0.0,97,0.00,,,0.03,Wunderground v.1.15,2013-02-23 06:40:00,
2013-02-23 01:45:00,46.0,45.5,29.77,West,269,0.0,0.0,98,0.00,,,0.03,Wunderground v.1.15,2013-02-23 06:45:00,
2013-02-23 01:55:00,45.8,45.0,29.78,West,269,0.0,0.0,97,0.00,,,0.03,Wunderground v.1.15,2013-02-23 06:55:00,
2013-02-23 02:00:00,45.2,44.4,29.78,West,269,0.0,0.0,97,0.00,,,0.03,Wunderground v.1.15,2013-02-23 07:00:00,
2013-02-23 02:10:00,44.6,43.8,29.78,West,269,0.0,0.0,97,0.00,,,0.03,Wunderground v.1.15,2013-02-23 07:10:00,
2013-02-23 02:20:00,44.6,43.8,29.79,West,269,0.0,0.0,97,0.00,,,0.03,Wunderground v.1.15,2013-02-23 07:20:00,
2013-02-23 02:30:00,44.8,44.0,29.79,West,269,0.0,0.0,97,0.00,,,0.04,Wunderground v.1.15,2013-02-23 07:30:00,
2013-02-23 02:40:00,45.4,44.6,29.78,West,269,0.0,0.0,97,0.09,,,0.06,Wunderground v.1.15,2013-02-23 07:40:00,
2013-02-23 02:50:00,45.5,44.7,29.78,West,269,0.0,0.0,97,0.09,,,0.07,Wunderground v.1.15,2013-02-23 07:50:00,
2013-02-23 03:00:00,45.5,44.7,29.78,West,269,0.0,1.0,97,0.06,,,0.08,Wunderground v.1.15,2013-02-23 08:00:00,
2013-02-23 03:10:00,45.7,44.9,29.76,West,269,0.0,0.0,97,0.07,,,0.09,Wunderground v.1.15,2013-02-23 08:10:00,
2013-02-23 03:20:00,46.2,45.7,29.75,West,269,0.0,0.0,98,0.06,,,0.10,Wunderground v.1.15,2013-02-23 08:20:00,
2013-02-23 03:25:00,46.7,46.2,29.73,West,269,0.0,1.0,98,0.04,,,0.10,Wunderground v.1.15,2013-02-23 08:25:00,
2013-02-23 03:30:00,46.8,46.3,29.72,West,269,1.0,1.0,98,0.00,,,0.11,Wunderground v.1.15,2013-02-23 08:30:00,
2013-02-23 03:40:00,47.1,46.6,29.73,West,269,0.0,0.0,98,0.00,,,0.11,Wunderground v.1.15,2013-02-23 08:40:00,
2013-02-23 03:50:00,47.4,46.9,29.73,West,269,0.0,0.0,98,0.04,,,0.12,Wunderground v.1.15,2013-02-23 08:50:00,
2013-02-23 04:00:00,47.4,46.9,29.73,West,269,0.0,0.0,98,0.05,,,0.13,Wunderground v.1.15,2013-02-23 09:00:00,
2013-02-23 04:10:00,46.5,45.7,29.73,West,269,0.0,0.0,97,0.07,,,0.14,Wunderground v.1.15,2013-02-23 09:10:00,
2013-02-23 04:20:00,46.7,45.9,29.73,West,269,0.0,0.0,97,0.07,,,0.15,Wunderground v.1.15,2013-02-23 09:20:00,
2013-02-23 04:30:00,46.8,46.0,29.71,West,269,0.0,0.0,97,0.06,,,0.16,Wunderground v.1.15,2013-02-23 09:30:00,
2013-02-23 04:40:00,47.1,46.3,29.70,West,269,0.0,0.0,97,0.05,,,0.17,Wunderground v.1.15,2013-02-23 09:40:00,
2013-02-23 04:50:00,47.4,46.6,29.68,West,269,0.0,0.0,97,0.00,,,0.17,Wunderground v.1.15,2013-02-23 09:50:00,
2013-02-23 05:00:00,46.8,46.0,29.68,NE,36,1.0,1.0,97,0.00,,,0.17,Wunderground v.1.15,2013-02-23 10:00:00,
2013-02-23 05:10:00,46.7,45.9,29.69,NE,36,0.0,0.0,97,0.00,,,0.17,Wunderground v.1.15,2013-02-23 10:10:00,
2013-02-23 05:20:00,45.8,45.0,29.70,NE,36,0.0,0.0,97,0.00,,,0.18,Wunderground v.1.15,2013-02-23 10:20:00,
2013-02-23 05:30:00,44.8,43.7,29.71,NE,42,1.0,1.0,96,0.00,,,0.18,Wunderground v.1.15,2013-02-23 10:30:00,
2013-02-23 05:35:00,44.1,43.0,29.71,NE,50,1.0,1.0,96,0.05,,,0.19,Wunderground v.1.15,2013-02-23 10:35:00,
2013-02-23 05:45:00,43.2,42.1,29.71,ENE,63,2.0,2.0,96,0.04,,,0.20,Wunderground v.1.15,2013-02-23 10:45:00,
2013-02-23 05:55:00,43.2,42.1,29.71,ENE,63,0.0,1.0,96,0.10,,,0.21,Wunderground v.1.15,2013-02-23 10:55:00,
2013-02-23 06:00:00,43.1,42.0,29.71,ENE,63,0.0,0.0,96,0.10,,,0.22,Wunderground v.1.15,2013-02-23 11:00:00,
2013-02-23 06:10:00,43.1,42.0,29.69,NE,54,2.0,2.0,96,0.08,,,0.23,Wunderground v.1.15,2013-02-23 11:10:00,
2013-02-23 06:20:00,43.2,42.1,29.70,NE,54,0.0,0.0,96,0.04,,,0.23,Wunderground v.1.15,2013-02-23 11:20:00,
2013-02-23 06:30:00,43.2,42.1,29.70,NE,54,0.0,0.0,96,0.00,,,0.23,Wunderground v.1.15,2013-02-23 11:30:00,
2013-02-23 06:40:00,43.3,42.2,29.70,NE,54,0.0,0.0,96,0.00,,,0.23,Wunderground v.1.15,2013-02-23 11:40:00,
2013-02-23 06:50:00,43.3,42.2,29.70,NE,54,0.0,0.0,96,0.00,,,0.23,Wunderground v.1.15,2013-02-23 11:50:00,
2013-02-23 06:55:00,43.5,42.7,29.71,NE,54,0.0,0.0,97,0.00,,,0.23,Wunderground v.1.15,2013-02-23 11:55:00,
2013-02-23 07:05:00,43.5,42.7,29.71,NE,54,0.0,0.0,97,0.00,,,0.23,Wunderground v.1.15,2013-02-23 12:05:00,
2013-02-23 07:15:00,43.2,42.1,29.71,NE,54,0.0,0.0,96,0.00,,,0.23,Wunderground v.1.15,2013-02-23 12:15:00,
2013-02-23 07:20:00,43.5,42.7,29.71,NE,54,0.0,0.0,97,0.00,,,0.23,Wunderground v.1.15,2013-02-23 12:20:00,
2013-02-23 07:30:00,43.9,43.1,29.71,NE,54,0.0,0.0,97,0.00,,,0.23,Wunderground v.1.15,2013-02-23 12:30:00,
2013-02-23 07:40:00,44.2,43.4,29.71,NE,54,0.0,0.0,97,0.00,,,0.24,Wunderground v.1.15,2013-02-23 12:40:00,
2013-02-23 07:50:00,44.2,43.4,29.71,NE,54,0.0,0.0,97,0.00,,,0.24,Wunderground v.1.15,2013-02-23 12:50:00,
2013-02-23 08:00:00,44.6,43.8,29.70,ENE,71,1.0,1.0,97,0.00,,,0.24,Wunderground v.1.15,2013-02-23 13:00:00,
2013-02-23 08:10:00,44.8,44.0,29.70,ENE,71,0.0,0.0,97,0.00,,,0.25,Wunderground v.1.15,2013-02-23 13:10:00,
2013-02-23 08:20:00,46.1,45.6,29.70,ENE,71,0.0,0.0,98,0.05,,,0.26,Wunderground v.1.15,2013-02-23 13:20:00,
2013-02-23 08:25:00,47.6,47.1,29.69,ENE,71,0.0,0.0,98,0.05,,,0.26,Wunderground v.1.15,2013-02-23 13:25:00,
2013-02-23 08:35:00,45.8,45.0,29.70,ENE,71,0.0,0.0,97,0.00,,,0.26,Wunderground v.1.15,2013-02-23 13:35:00,
2013-02-23 08:45:00,45.4,44.6,29.71,ENE,71,0.0,0.0,97,0.00,,,0.27,Wunderground v.1.15,2013-02-23 13:45:00,
2013-02-23 08:50:00,45.4,44.6,29.71,ENE,71,0.0,0.0,97,0.00,,,0.27,Wunderground v.1.15,2013-02-23 13:50:00,
2013-02-23 09:00:00,45.4,44.6,29.71,ENE,71,0.0,0.0,97,0.00,,,0.27,Wunderground v.1.15,2013-02-23 14:00:00,
2013-02-23 09:10:00,45.1,44.3,29.71,ENE,71,0.0,0.0,97,0.00,,,0.28,Wunderground v.1.15,2013-02-23 14:10:00,
2013-02-23 09:20:00,45.2,44.4,29.72,ENE,71,0.0,0.0,97,0.00,,,0.28,Wunderground v.1.15,2013-02-23 14:20:00,
2013-02-23 09:30:00,45.7,45.2,29.71,ENE,71,0.0,0.0,98,0.00,,,0.29,Wunderground v.1.15,2013-02-23 14:30:00,
2013-02-23 09:35:00,45.8,45.3,29.71,ENE,71,0.0,1.0,98,0.00,,,0.29,Wunderground v.1.15,2013-02-23 14:35:00,
2013-02-23 09:40:00,45.8,45.3,29.70,ENE,71,0.0,0.0,98,0.00,,,0.29,Wunderground v.1.15,2013-02-23 14:40:00,
2013-02-23 09:50:00,46.0,45.5,29.70,ENE,71,0.0,0.0,98,0.00,,,0.29,Wunderground v.1.15,2013-02-23 14:50:00,
2013-02-23 10:00:00,46.1,45.6,29.68,ENE,71,0.0,0.0,98,0.00,,,0.29,Wunderground v.1.15,2013-02-23 15:00:00,
2013-02-23 10:10:00,46.2,45.7,29.68,NNE,19,0.0,0.0,98,0.00,,,0.29,Wunderground v.1.15,2013-02-23 15:10:00,
2013-02-23 10:20:00,46.5,46.0,29.69,NNE,19,0.0,0.0,98,0.00,,,0.29,Wunderground v.1.15,2013-02-23 15:20:00,
2013-02-23 10:30:00,46.8,46.3,29.69,NNE,19,0.0,0.0,98,0.00,,,0.29,Wunderground v.1.15,2013-02-23 15:30:00,
2013-02-23 10:35:00,46.7,46.2,29.69,NNE,19,0.0,0.0,98,0.00,,,0.29,Wunderground v.1.15,2013-02-23 15:35:00,
2013-02-23 10:40:00,46.5,46.0,29.69,NNE,19,0.0,0.0,98,0.00,,,0.29,Wunderground v.1.15,2013-02-23 15:40:00,
2013-02-23 10:50:00,46.5,46.0,29.70,NNE,19,0.0,0.0,98,0.00,,,0.29,Wunderground v.1.15,2013-02-23 15:50:00,
2013-02-23 11:00:00,46.5,46.0,29.70,NNE,19,0.0,2.0,98,0.00,,,0.29,Wunderground v.1.15,2013-02-23 16:00:00,
2013-02-23 11:10:00,47.0,46.5,29.70,NNE,19,0.0,0.0,98,0.00,,,0.29,Wunderground v.1.15,2013-02-23 16:10:00,
2013-02-23 11:20:00,47.4,47.1,29.69,NNE,19,0.0,0.0,99,0.00,,,0.29,Wunderground v.1.15,2013-02-23 16:20:00,
2013-02-23 11:30:00,48.3,48.0,29.69,NNE,19,0.0,0.0,99,0.00,,,0.29,Wunderground v.1.15,2013-02-23 16:30:00,
2013-02-23 11:35:00,48.5,48.2,29.69,NNE,19,0.0,0.0,99,0.00,,,0.29,Wunderground v.1.15,2013-02-23 16:35:00,
2013-02-23 11:40:00,48.5,48.2,29.68,NNE,19,0.0,0.0,99,0.00,,,0.29,Wunderground v.1.15,2013-02-23 16:40:00,
2013-02-23 11:50:00,48.9,48.6,29.67,NNE,19,0.0,0.0,99,0.00,,,0.29,Wunderground v.1.15,2013-02-23 16:50:00,
2013-02-23 12:00:00,49.4,49.1,29.67,NNE,19,0.0,0.0,99,0.00,,,0.29,Wunderground v.1.15,2013-02-23 17:00:00,
2013-02-23 12:10:00,49.2,48.9,29.66,NNE,19,0.0,0.0,99,0.00,,,0.29,Wunderground v.1.15,2013-02-23 17:10:00,
2013-02-23 12:20:00,49.4,49.1,29.65,NNE,19,0.0,1.0,99,0.00,,,0.29,Wunderground v.1.15,2013-02-23 17:20:00,
2013-02-23 12:30:00,49.5,49.2,29.64,WSW,254,0.0,1.0,99,0.00,,,0.29,Wunderground v.1.15,2013-02-23 17:30:00,
2013-02-23 12:40:00,49.2,48.9,29.64,WSW,254,0.0,0.0,99,0.00,,,0.29,Wunderground v.1.15,2013-02-23 17:40:00,
2013-02-23 12:50:00,49.2,48.9,29.63,WSW,254,0.0,0.0,99,0.00,,,0.29,Wunderground v.1.15,2013-02-23 17:50:00,
2013-02-23 13:00:00,48.8,48.5,29.64,West,271,0.0,0.0,99,0.00,,,0.29,Wunderground v.1.15,2013-02-23 18:00:00,
2013-02-23 13:10:00,48.9,48.4,29.64,West,271,0.0,0.0,98,0.00,,,0.29,Wunderground v.1.15,2013-02-23 18:10:00,
2013-02-23 13:20:00,48.9,48.4,29.64,West,271,0.0,0.0,98,0.00,,,0.29,Wunderground v.1.15,2013-02-23 18:20:00,
2013-02-23 13:30:00,48.8,48.3,29.64,West,271,0.0,0.0,98,0.00,,,0.29,Wunderground v.1.15,2013-02-23 18:30:00,
2013-02-23 13:40:00,48.6,48.1,29.63,West,271,0.0,0.0,98,0.00,,,0.29,Wunderground v.1.15,2013-02-23 18:40:00,
2013-02-23 13:45:00,48.6,48.1,29.63,West,271,0.0,0.0,98,0.00,,,0.29,Wunderground v.1.15,2013-02-23 18:45:00,
2013-02-23 13:55:00,48.9,48.4,29.63,West,271,0.0,0.0,98,0.00,,,0.29,Wunderground v.1.15,2013-02-23 18:55:00,
2013-02-23 14:05:00,48.8,48.3,29.63,West,271,0.0,0.0,98,0.00,,,0.29,Wunderground v.1.15,2013-02-23 19:05:00,
2013-02-23 14:10:00,48.8,48.3,29.64,West,271,0.0,0.0,98,0.00,,,0.29,Wunderground v.1.15,2013-02-23 19:10:00,
2013-02-23 14:20:00,48.9,48.4,29.63,West,271,0.0,0.0,98,0.00,,,0.29,Wunderground v.1.15,2013-02-23 19:20:00,
2013-02-23 14:30:00,48.9,48.4,29.63,West,271,0.0,1.0,98,0.00,,,0.30,Wunderground v.1.15,2013-02-23 19:30:00,
2013-02-23 14:40:00,49.1,48.6,29.63,North,5,0.0,0.0,98,0.00,,,0.30,Wunderground v.1.15,2013-02-23 19:40:00,
2013-02-23 14:50:00,49.1,48.6,29.62,West,272,0.0,0.0,98,0.00,,,0.30,Wunderground v.1.15,2013-02-23 19:50:00,
2013-02-23 15:00:00,49.1,48.6,29.62,NW,323,0.0,0.0,98,0.00,,,0.30,Wunderground v.1.15,2013-02-23 20:00:00,
2013-02-23 15:05:00,49.1,48.6,29.61,NW,323,0.0,0.0,98,0.00,,,0.30,Wunderground v.1.15,2013-02-23 20:05:00,
2013-02-23 15:15:00,49.4,48.9,29.61,NW,321,0.0,1.0,98,0.00,,,0.31,Wunderground v.1.15,2013-02-23 20:15:00,
2013-02-23 15:25:00,49.2,48.7,29.60,NNE,25,0.0,1.0,98,0.00,,,0.31,Wunderground v.1.15,2013-02-23 20:25:00,
2013-02-23 15:30:00,49.4,48.9,29.60,NNE,22,0.0,0.0,98,0.00,,,0.31,Wunderground v.1.15,2013-02-23 20:30:00,
2013-02-23 15:40:00,49.5,49.0,29.61,NNE,22,0.0,0.0,98,0.00,,,0.31,Wunderground v.1.15,2013-02-23 20:40:00,
2013-02-23 15:50:00,49.4,48.9,29.61,NNE,22,0.0,0.0,98,0.00,,,0.31,Wunderground v.1.15,2013-02-23 20:50:00,
2013-02-23 16:00:00,49.1,48.6,29.62,NNE,16,0.0,2.0,98,0.00,,,0.31,Wunderground v.1.15,2013-02-23 21:00:00,
2013-02-23 16:10:00,48.8,48.0,29.61,NNE,16,0.0,0.0,97,0.00,,,0.31,Wunderground v.1.15,2013-02-23 21:10:00,
2013-02-23 16:20:00,48.9,48.1,29.61,NNE,16,0.0,2.0,97,0.00,,,0.31,Wunderground v.1.15,2013-02-23 21:20:00,
2013-02-23 16:25:00,48.9,48.1,29.61,NNE,16,0.0,2.0,97,0.00,,,0.31,Wunderground v.1.15,2013-02-23 21:25:00,
2013-02-23 16:30:00,48.9,48.1,29.60,WNW,284,0.0,0.0,97,0.00,,,0.31,Wunderground v.1.15,2013-02-23 21:30:00,
2013-02-23 16:40:00,48.8,48.0,29.60,WNW,284,0.0,0.0,97,0.00,,,0.31,Wunderground v.1.15,2013-02-23 21:40:00,
2013-02-23 16:50:00,48.8,48.0,29.60,WNW,284,0.0,0.0,97,0.00,,,0.31,Wunderground v.1.15,2013-02-23 21:50:00,
2013-02-23 17:00:00,48.6,47.8,29.59,WNW,284,0.0,0.0,97,0.00,,,0.31,Wunderground v.1.15,2013-02-23 22:00:00,
2013-02-23 17:10:00,48.5,47.7,29.61,WNW,284,0.0,0.0,97,0.00,,,0.31,Wunderground v.1.15,2013-02-23 22:10:00,
2013-02-23 17:20:00,48.5,47.7,29.61,WNW,284,0.0,0.0,97,0.00,,,0.31,Wunderground v.1.15,2013-02-23 22:20:00,
2013-02-23 17:30:00,48.3,47.5,29.61,WNW,284,0.0,0.0,97,0.00,,,0.31,Wunderground v.1.15,2013-02-23 22:30:00,
2013-02-23 17:35:00,48.0,47.2,29.60,WNW,284,0.0,0.0,97,0.00,,,0.31,Wunderground v.1.15,2013-02-23 22:35:00,
2013-02-23 17:40:00,48.0,47.2,29.60,WNW,284,0.0,0.0,97,0.00,,,0.31,Wunderground v.1.15,2013-02-23 22:40:00,
2013-02-23 17:50:00,47.9,47.1,29.59,WNW,284,0.0,0.0,97,0.00,,,0.31,Wunderground v.1.15,2013-02-23 22:50:00,
2013-02-23 18:00:00,47.9,47.1,29.59,WNW,284,0.0,0.0,97,0.00,,,0.31,Wunderground v.1.15,2013-02-23 23:00:00,
2013-02-23 18:10:00,47.7,46.9,29.58,WNW,284,0.0,0.0,97,0.00,,,0.31,Wunderground v.1.15,2013-02-23 23:10:00,
2013-02-23 18:20:00,47.6,46.8,29.58,WNW,284,0.0,0.0,97,0.00,,,0.31,Wunderground v.1.15,2013-02-23 23:20:00,
2013-02-23 18:30:00,47.4,46.6,29.59,WNW,284,0.0,0.0,97,0.00,,,0.31,Wunderground v.1.15,2013-02-23 23:30:00,
2013-02-23 18:40:00,47.3,46.5,29.60,WNW,284,0.0,0.0,97,0.00,,,0.31,Wunderground v.1.15,2013-02-23 23:40:00,
2013-02-23 18:45:00,47.3,46.5,29.60,WNW,284,0.0,0.0,97,0.00,,,0.31,Wunderground v.1.15,2013-02-23 23:45:00,
2013-02-23 18:55:00,47.3,46.5,29.60,WNW,284,0.0,0.0,97,0.00,,,0.31,Wunderground v.1.15,2013-02-23 23:55:00,
2013-02-23 19:05:00,47.1,46.3,29.59,WNW,284,0.0,0.0,97,0.00,,,0.31,Wunderground v.1.15,2013-02-24 00:05:00,
2013-02-23 19:15:00,46.7,45.6,29.59,WNW,284,0.0,0.0,96,0.00,,,0.31,Wunderground v.1.15,2013-02-24 00:15:00,
2013-02-23 19:25:00,46.4,45.6,29.60,WNW,284,0.0,0.0,97,0.00,,,0.31,Wunderground v.1.15,2013-02-24 00:25:00,
2013-02-23 19:35:00,46.1,45.3,29.60,WNW,284,0.0,0.0,97,0.00,,,0.31,Wunderground v.1.15,2013-02-24 00:35:00,
2013-02-23 19:40:00,46.1,45.3,29.60,WNW,284,0.0,0.0,97,0.00,,,0.31,Wunderground v.1.15,2013-02-24 00:40:00,
2013-02-23 19:50:00,46.0,45.2,29.61,WNW,284,0.0,0.0,97,0.00,,,0.31,Wunderground v.1.15,2013-02-24 00:50:00,
2013-02-23 20:00:00,46.0,45.2,29.60,WNW,284,0.0,0.0,97,0.00,,,0.31,Wunderground v.1.15,2013-02-24 01:00:00,
2013-02-23 20:10:00,45.7,44.9,29.60,WNW,284,0.0,0.0,97,0.00,,,0.31,Wunderground v.1.15,2013-02-24 01:10:00,
2013-02-23 20:20:00,45.4,44.6,29.60,WNW,284,0.0,0.0,97,0.00,,,0.31,Wunderground v.1.15,2013-02-24 01:20:00,
2013-02-23 20:30:00,45.5,44.7,29.61,WNW,284,0.0,0.0,97,0.00,,,0.31,Wunderground v.1.15,2013-02-24 01:30:00,
2013-02-23 20:40:00,45.5,44.7,29.61,WNW,284,0.0,0.0,97,0.00,,,0.31,Wunderground v.1.15,2013-02-24 01:40:00,
2013-02-23 20:50:00,45.5,44.7,29.60,WNW,284,0.0,0.0,97,0.00,,,0.31,Wunderground v.1.15,2013-02-24 01:50:00,
2013-02-23 20:55:00,45.4,44.6,29.60,WNW,284,0.0,0.0,97,0.00,,,0.31,Wunderground v.1.15,2013-02-24 01:55:00,
2013-02-23 21:00:00,45.5,44.7,29.60,WNW,284,0.0,0.0,97,0.00,,,0.31,Wunderground v.1.15,2013-02-24 02:00:00,
2013-02-23 21:10:00,45.5,44.7,29.60,WNW,284,0.0,0.0,97,0.00,,,0.31,Wunderground v.1.15,2013-02-24 02:10:00,
2013-02-23 21:20:00,45.7,44.9,29.60,WNW,284,0.0,0.0,97,0.00,,,0.31,Wunderground v.1.15,2013-02-24 02:20:00,
2013-02-23 21:30:00,46.0,45.2,29.61,WNW,284,0.0,0.0,97,0.00,,,0.31,Wunderground v.1.15,2013-02-24 02:30:00,
2013-02-23 21:40:00,46.0,45.2,29.59,WNW,284,0.0,0.0,97,0.00,,,0.31,Wunderground v.1.15,2013-02-24 02:40:00,
2013-02-23 21:50:00,45.8,45.0,29.60,WNW,284,0.0,0.0,97,0.00,,,0.31,Wunderground v.1.15,2013-02-24 02:50:00,
2013-02-23 22:00:00,45.7,44.9,29.60,WNW,284,0.0,0.0,97,0.00,,,0.31,Wunderground v.1.15,2013-02-24 03:00:00,
2013-02-23 22:10:00,45.8,45.0,29.60,WNW,284,0.0,0.0,97,0.00,,,0.31,Wunderground v.1.15,2013-02-24 03:10:00,
2013-02-23 22:15:00,45.7,44.9,29.60,WNW,284,0.0,0.0,97,0.00,,,0.31,Wunderground v.1.15,2013-02-24 03:15:00,
2013-02-23 22:25:00,45.4,44.6,29.60,WNW,284,0.0,0.0,97,0.00,,,0.31,Wunderground v.1.15,2013-02-24 03:25:00,
2013-02-23 22:35:00,45.1,44.3,29.60,WNW,284,0.0,0.0,97,0.00,,,0.31,Wunderground v.1.15,2013-02-24 03:35:00,
2013-02-23 22:40:00,44.8,44.0,29.60,WNW,284,0.0,0.0,97,0.00,,,0.31,Wunderground v.1.15,2013-02-24 03:40:00,
2013-02-23 22:50:00,44.3,43.5,29.60,WNW,284,0.0,0.0,97,0.00,,,0.31,Wunderground v.1.15,2013-02-24 03:50:00,
2013-02-23 23:00:00,44.1,43.3,29.62,WNW,284,0.0,1.0,97,0.00,,,0.31,Wunderground v.1.15,2013-02-24 04:00:00,
2013-02-23 23:10:00,44.5,43.7,29.60,West,264,1.0,1.0,97,0.00,,,0.31,Wunderground v.1.15,2013-02-24 04:10:00,
2013-02-23 23:15:00,44.5,43.7,29.60,West,263,1.0,1.0,97,0.00,,,0.31,Wunderground v.1.15,2013-02-24 04:15:00,
2013-02-23 23:25:00,43.9,43.1,29.61,West,264,0.0,0.0,97,0.00,,,0.31,Wunderground v.1.15,2013-02-24 04:25:00,
2013-02-23 23:35:00,44.1,43.3,29.61,West,264,1.0,1.0,97,0.00,,,0.31,Wunderground v.1.15,2013-02-24 04:35:00,
2013-02-23 23:40:00,44.1,43.6,29.61,West,264,1.0,2.0,98,0.00,,,0.31,Wunderground v.1.15,2013-02-24 04:40:00,
2013-02-23 23:50:00,44.1,43.6,29.61,West,264,1.0,1.0,98,0.00,,,0.31,Wunderground v.1.15,2013-02-24 04:50:00,